Location: Góry Miechowskie
(50.3599°N, 20.1803°E)
Time: 00:51:10
(UTC+00:00)

Vanguard 2 - Pass Details

Date: 14 September 2024
Orbit: 552 x 2910 km, 32.9° (Epoch: 09 October)

Event Time Altitude Azimuth Distance (km) Brightness Sun altitude
Rises 06:40:56 0° 254° (WSW) 4,194 10.9 22.1°
Reaches altitude 10° 06:44:15 10° 239° (WSW) 3,569 10.7 22.6°
Maximum altitude 06:51:02 22° 193° (SSW) 3,360 11.1 23.6°
Drops below altitude 10° 07:00:11 10° 151° (SSE) 4,971 12.7 24.9°
Sets 07:06:01 0° 139° (SE) 6,335 13.3 25.7°
